This demonstration page uses our WeatherBlox Daily Observations layout. Learn more.

Hourly Observations for September 15, 2015

Temp ( °F °C ) Dew Point ( °F °C ) Humidity (%) Winds ( mph kmh ) Pressure ( in mb ) Visibility ( mi km ) Precip ( " mm )
12:15 am 00:15 Clear 73 22.7 55 12.5 53 53 SSE 16 26 29.68 1005 10 16.0934 0 0
12:35 am 00:35 Clear 71 21.8 55 12.7 56 56 SSE 14 22 29.68 1005 10 16.0934 0 0
12:55 am 00:55 Clear 70 21.1 56 13.1 60 60 SSE 12 19 29.68 1005 10 16.0934 0 0
1:15 am 01:15 Clear 69 20.8 56 13.3 62 62 SSE 14 22 29.68 1005 10 16.0934 0 0
1:35 am 01:35 Clear 68 20.1 56 13.3 65 65 SSE 10 17 29.71 1006 10 16.0934 0 0
1:55 am 01:55 Clear 66 19.1 56 13.5 70 70 SSE 10 17 29.71 1006 10 16.0934 0 0
2:15 am 02:15 Clear 65 18.6 56 13.5 72 72 SSE 10 17 29.68 1005 10 16.0934 0 0
2:35 am 02:35 Clear 65 18.5 57 13.7 74 74 SSE 12 19 29.68 1005 10 16.0934 0 0
2:55 am 02:55 Clear 65 18.6 56 13.5 72 72 SSE 9 15 29.68 1005 10 16.0934 0 0
3:15 am 03:15 Clear 65 18.6 56 13.5 72 72 SSE 8 13 29.68 1005 10 16.0934 0 0
3:35 am 03:35 Clear 65 18.5 56 13.2 71 71 SSE 9 15 29.68 1005 10 16.0934 0 0
3:55 am 03:55 Clear 66 19 55 13 68 68 SSE 12 19 29.68 1005 10 16.0934 0 0
4:15 am 04:15 Clear 67 19.3 55 12.8 66 66 SSE 12 19 29.65 1004 10 16.0934 0 0
4:35 am 04:35 Clear 67 19.5 55 12.6 65 65 SSE 14 22 29.65 1004 10 16.0934 0 0
4:55 am 04:55 Clear 67 19.5 55 12.5 64 64 SSE 12 19 29.65 1004 10 16.0934 0 0
5:15 am 05:15 Clear 67 19.5 55 12.5 64 64 SSE 9 15 29.65 1004 10 16.0934 0 0
5:35 am 05:35 Clear 67 19.4 54 12.4 64 64 S 10 17 29.65 1004 10 16.0934 0 0
5:55 am 05:55 Clear 67 19.7 54 12.3 63 63 S 10 17 29.68 1005 10 16.0934 0 0
6:15 am 06:15 Clear 67 19.6 54 12.3 63 63 S 13 20 29.68 1005 10 16.0934 0 0
6:35 am 06:35 Clear 67 19.3 54 12.2 64 64 S 10 17 29.68 1005 10 16.0934 0 0
6:55 am 06:55 Clear 66 18.8 54 12.3 66 66 S 9 15 29.68 1005 10 16.0934 0 0
7:15 am 07:15 Clear 66 19 54 12.3 65 65 S 12 19 29.68 1005 10 16.0934 0 0
7:35 am 07:35 Sunny 66 19 54 12.2 65 65 S 9 15 29.68 1005 10 16.0934 0 0
7:55 am 07:55 Sunny 66 19.1 54 12.3 65 65 S 12 19 29.68 1005 10 16.0934 0 0
8:15 am 08:15 Sunny 67 19.7 54 12.3 63 63 S 12 19 29.71 1006 10 16.0934 0 0
8:35 am 08:35 Sunny 69 20.5 54 12.4 60 60 S 13 20 29.68 1005 10 16.0934 0 0
8:55 am 08:55 Sunny 71 21.5 54 12.1 55 55 S 16 26 29.68 1005 10 16.0934 0 0
9:15 am 09:15 Sunny 72 22.3 54 12.2 53 53 S 15 24 29.68 1005 10 16.0934 0 0
9:35 am 09:35 Sunny 75 23.8 53 11.6 46 46 S 17 28 29.68 1005 10 16.0934 0 0
9:55 am 09:55 Sunny 77 25 52 11.3 42 42 S 18 30 29.65 1004 10 16.0934 0 0
10:15 am 10:15 Sunny 79 26 52 11.1 39 39 S 16 26 29.65 1004 10 16.0934 0 0
10:35 am 10:35 Sunny 79 26.2 51 10.7 38 38 S 16 26 29.65 1004 10 16.0934 0 0
10:55 am 10:55 Sunny 81 27 50 10.1 35 35 S 20 31 29.65 1004 10 16.0934 0 0
11:15 am 11:15 Sunny 83 28.2 50 10.1 32 32 S 16 26 29.65 1004 10 16.0934 0 0
11:35 am 11:35 Sunny 85 29.4 49 9.7 29 29 S 16 26 29.62 1003 10 16.0934 0 0
11:55 am 11:55 Sunny 85 29.6 49 9.7 29 29 S 16 26 29.62 1003 10 16.0934 0 0
12:15 pm 12:15 Sunny 87 30.8 49 9.6 27 27 S 18 30 29.62 1003 10 16.0934 0 0
12:35 pm 12:35 Sunny 90 32.2 47 8.1 22 22 SSW 22 35 29.62 1003 10 16.0934 0 0
12:55 pm 12:55 Sunny 90 32.4 47 8.1 22 22 SSW 18 30 29.62 1003 10 16.0934 0 0
1:15 pm 13:15 Sunny 93 33.7 46 8 20 20 S 18 30 29.59 1002 10 16.0934 0 0
1:35 pm 13:35 Sunny 94 34.6 48 8.9 21 21 S 20 31 29.56 1001 10 16.0934 0 0
1:55 pm 13:55 Sunny 95 34.8 48 8.8 20 20 S 22 35 29.56 1001 10 16.0934 0 0
2:15 pm 14:15 Sunny 97 35.9 47 8.6 19 19 S 21 33 29.53 1000 10 16.0934 0 0
2:35 pm 14:35 Sunny 95 35 47 8.5 20 20 S 17 28 29.56 1001 10 16.0934 0 0
2:55 pm 14:55 Sunny 97 36.2 47 8.1 18 18 SSW 16 26 29.53 1000 10 16.0934 0 0
3:15 pm 15:15 Sunny 98 36.7 45 7 16 16 SSW 26 43 29.53 1000 7 11.26538 0 0
3:35 pm 15:35 Sunny 98 36.6 45 7 16 16 SSW 25 41 29.5 999 7 11.26538 0 0
3:55 pm 15:55 Hazy 98 36.6 44 6.6 16 16 SW 22 35 29.5 999 5 8.0467 0 0
4:15 pm 16:15 Sunny 99 37.1 44 6.4 15 15 SW 22 35 29.5 999 7 11.26538 0 0
4:35 pm 16:35 Sunny 98 36.5 44 6.7 16 16 SSW 16 26 29.5 999 10 16.0934 0 0
4:55 pm 16:55 Sunny 97 36.3 41 5 14 14 S 29 46 29.5 999 7 11.26538 0 0
5:15 pm 17:15 Partly Cloudy 97 36.2 39 4 13 13 S 25 41 29.5 999 7 11.26538 0 0
5:35 pm 17:35 Sunny 96 35.8 41 5.2 15 15 S 26 43 29.5 999 10 16.0934 0 0
5:55 pm 17:55 Sunny 94 34.6 40 4.3 15 15 S 28 44 29.53 1000 10 16.0934 0 0
6:15 pm 18:15 Sunny 93 33.7 40 4.6 16 16 S 22 35 29.53 1000 10 16.0934 0 0
6:35 pm 18:35 Sunny 91 32.7 46 7.6 21 21 S 21 33 29.56 1001 10 16.0934 0 0
6:55 pm 18:55 Sunny 90 32.2 46 7.5 21 21 WSW 15 24 29.62 1003 10 16.0934 0 0
7:15 pm 19:15 Partly Cloudy with Light Rain 77 25.1 57 13.7 49 49 W 8 13 29.65 1004 10 16.0934 0 0
7:35 pm 19:35 Mostly Cloudy 76 24.2 59 14.8 56 56 SW 6 9 29.68 1005 10 16.0934 0 0
7:55 pm 19:55 Partly Cloudy 85 29.3 49 9.2 28 28 SSE 12 19 29.62 1003 10 16.0934 0 0
8:15 pm 20:15 Clear 83 28.4 49 9.7 31 31 SE 16 26 29.65 1004 10 16.0934 0 0
8:35 pm 20:35 Clear 82 27.8 49 9.5 32 32 SSE 15 24 29.65 1004 10 16.0934 0 0
8:55 pm 20:55 Clear 84 29 47 8.5 28 28 SSE 22 35 29.62 1003 10 16.0934 0 0
9:15 pm 21:15 Clear 84 28.8 47 8.5 28 28 S 24 39 29.62 1003 10 16.0934 0 0
9:35 pm 21:35 Clear 83 28.1 48 8.8 30 30 S 24 39 29.68 1005 10 16.0934 0 0
9:55 pm 21:55 Clear 82 27.5 48 9 31 31 S 18 30 29.68 1005 10 16.0934 0 0
10:15 pm 22:15 Clear 81 27.1 47 8.6 31 31 S 18 30 29.68 1005 10 16.0934 0 0
10:35 pm 22:35 Clear 80 26.7 47 8.2 31 31 S 15 24 29.71 1006 10 16.0934 0 0
10:55 pm 22:55 Clear 79 26.2 47 8.5 33 33 S 21 33 29.71 1006 10 16.0934 0 0
11:15 pm 23:15 Clear with Nearby Thunderstorms 79 26 48 9 34 34 S 16 26 29.71 1006 10 16.0934 0 0
11:35 pm 23:35 Partly Cloudy 73 22.8 55 12.5 52 52 S 12 19 29.77 1008 10 16.0934 0.02 0.508
11:55 pm 23:55 Clear 74 23.2 54 12.1 50 50 SW 3 6 29.8 1009 10 16.0934 0.02 0.508

Powered by AerisWeather